Погода в Дубовом

Россия / Амурская область     49°42′56″N   128°46′43″E
темп.,
°C
ветер,
м/с
пор.,
м/с
влажн.,
%
обл.,
%
осадки,
мм/ч
давл.,
гПа
погр.,
м
19 апреля, пн
пн1900:00+5ю22641 0.0 100616
03:00+4ююв226739 0.0 100516
06:00+3ююз22680 0.0 100516
09:00+8сз68563 0.0 1005636
12:00+8ссз9115290 0.0 10071224
15:00+8ссз1012310 0.0 10081736
18:00+6ссз914320 0.0 10102080
21:00+2ссз1016330 0.0 10131259
20 апреля, вт
вт2000:000сз717390 0.0 10151458
03:00−1сз919380 0.0 10151525
06:00−1зсз1018350 0.0 10151336
09:00+2сз1117240 0.0 10161630
12:00+6сз1014190 0.0 10161853
15:00+9сз811180 0.0 10151687
18:00+9сз36264 0.0 1015267
21:00+5ююз11310 0.0 101610
21 апреля, ср
ср2100:00+3юв35430 0.0 101654
03:00+3ююв45522 0.0 101560
06:00+2юв465874 0.0 101679
09:00+10ю47414 0.0 1015357
12:00+19ююз69250 0.0 10141153
15:00+22ююз69200 0.0 10121750
18:00+20ююз472895 0.0 1011140
21:00+15ююв4935100 0.0 1012103
22 апреля, чт
чт2200:00+12юв4104399 0.0 1012147
03:00+12вюв6114645 0.0 1011177
06:00+11юв5115778 0.0 1012187
09:00+17ююз7143794 0.0 1013972
12:00+21юз10143375 0.0 10141487
15:00+21юз8123398 0.0 10151849
18:00+20ююз593735 0.0 1017814
21:00+15зюз4105319 0.0 1020239
23 апреля, пт
пт2300:00+11зюз49705 0.0 1022223
03:00+9ссз59675 0.0 1024311
06:00+6ссз6105780 0.0 1026458
09:00+6ссз6953100 0.0 1028598
12:00+7ссз6853100 0.0 1029829
15:00+7с7838100 0.0 10291008
18:00+8ссз5833100 0.0 10291474
21:00+6с7122698 0.0 1030607